Regional Weather Roundup
Issued by NWS Raleigh/Durham, NC

Home | Current Version | Previous Version | Text Only | Print | Product List | Glossary On
Versions: 1 2 3 4 5 6 7 8 9 10 11 12 13 14 15 16 17 18 19 20 21 22 23 24 25 26 27
000
ASUS42 KRAH 200110
RWRRAH
NORTH CAROLINA WEATHER ROUNDUP
NATIONAL WEATHER SERVICE RALEIGH NC
900 PM EDT TUE SEP 19 2017

NOTE: "FAIR" INDICATES FEW OR NO CLOUDS BELOW 12,000 FEET WITH NO
SIGNIFICANT WEATHER AND/OR OBSTRUCTIONS TO VISIBILITY.

NCZ001-053-055-056-065-067-200200-
WESTERN NORTH CAROLINA

CITY           SKY/WX    TMP DP  RH WIND       PRES   REMARKS
ASHEVILLE      PTCLDY    71  65  81 CALM      30.04S
JEFFERSON      MOCLDY    69  57  66 CALM      30.09R
MORGANTON      CLEAR     67  67  99 CALM      30.03R
HICKORY        CLEAR     72  67  84 CALM      29.99R
RUTHERFORDTON  PTCLDY    74  69  82 CALM      29.99S
MOUNT AIRY     CLEAR     73  67  81 CALM      30.01R
BOONE          CLEAR     61  60  96 CALM      30.10S
$$

NCZ021-022-025-041-071-084-088-200200-
CENTRAL NORTH CAROLINA

CITY           SKY/WX    TMP DP  RH WIND       PRES   REMARKS
CHARLOTTE      PTCLDY    75  68  78 SW5       29.98R
GREENSBORO     PTCLDY    73  66  78 SW3       29.97R
WINSTON-SALEM  CLEAR     74  65  73 CALM      29.99R
RALEIGH-DURHAM PTCLDY    70  65  84 CALM      29.96R
FORT BRAGG     CLEAR     74  67  78 CALM      29.94R
FAYETTEVILLE   CLEAR     73  66  78 SW3       29.95R
BURLINGTON     CLEAR     70  66  87 CALM      29.96R
LAURINBURG     CLEAR     71  69  93 CALM      29.96R
$$

NCZ011-015-027-028-043-044-047-080-103-200200-
NORTHEASTERN NORTH CAROLINA

CITY           SKY/WX    TMP DP  RH WIND       PRES   REMARKS
ROCKY MT-WILSO CLEAR     68  68 100 SW3       29.93R
GREENVILLE     CLEAR     68  68 100 CALM      29.95R
WASHINGTON     CLEAR     73  66  80 CALM      29.92R
ELIZABETH CITY CLOUDY    73  70  90 NW8       29.88R
MANTEO         CLOUDY    72  67  86 N9G17     29.88R
CAPE HATTERAS  CLOUDY    75  69  81 NW8G20    29.89R
$$

NCZ078-087-090-091-093-098-101-200200-
SOUTHEASTERN NORTH CAROLINA

CITY           SKY/WX    TMP DP  RH WIND       PRES   REMARKS
LUMBERTON      CLEAR     68  67  96 CALM      29.95R
GOLDSBORO      CLEAR     74  72  93 CALM      29.92R
KINSTON        CLEAR     68  66  94 CALM      29.94R
KENANSVILLE    CLEAR     68  66  94 CALM      29.94R
NEW BERN       CLEAR     72  69  90 W3        29.94R
CHERRY POINT   CLEAR     75  68  78 W6        29.93R
BEAUFORT       CLEAR     75  70  84 NW5       29.92R
JACKSONVILLE   CLEAR     73  70  90 W5        29.93R
WILMINGTON     CLEAR     72  69  90 CALM      29.94R
$$





USA.gov is the U.S. government's official web portal to all federal, state and local government web resources and services.